{"data":{"norad_id":52642,"epoch":"2026-09-20T03:13:24.313152Z","epoch_age_seconds":98082,"freshness":"FRESH","line1":"1 52642U 22052AW  26263.13430918  .00000173  00000+0  15876-4 0  9999","line2":"2 52642  53.1592  93.4393 0001148  86.9845 273.1289 15.35398370240654","mean_motion":15.3539837,"eccentricity":0.0001148,"inclination_deg":53.1592,"raan_deg":93.4393,"arg_perigee_deg":86.9845,"mean_anomaly_deg":273.1289,"bstar":1.5876e-5,"rev_number":24065,"period_min":93.786734969635,"perigee_km":458.95249420057,"apogee_km":460.52247018168,"semimajor_km":6837.8744821911,"source":"CELESTRAK","updated_at":"2026-09-20T09:00:40.098304Z"}}